BIELK01 EPKK-EPKK

Flight info

Callsign BIELK01
Flight time 0h 28m
Altitude 1800
Route STAY01/0030
Aircraft M346/M-G/LB1

Departure

Time 2026-05-07 15:36
Airport Kraków John Paul II International Airport (EPKK)

Arrival

Time 2026-05-07 16:05
Airport Kraków John Paul II International Airport (EPKK)
Time Latitude Longitude Altitude Speed Heading
2026-05-07 15:22 50.07485 19.79253 798 ft 0 kts 77°
2026-05-07 15:27 50.07485 19.79255 798 ft 4 kts 77°
2026-05-07 15:28 50.07491 19.79291 798 ft 4 kts 70°
2026-05-07 15:28 50.07518 19.79301 798 ft 5 kts 337°
2026-05-07 15:28 50.07528 19.79240 798 ft 6 kts 258°
2026-05-07 15:28 50.07521 19.79173 798 ft 4 kts 285°
2026-05-07 15:29 50.07540 19.79149 798 ft 8 kts 342°
2026-05-07 15:29 50.07576 19.79145 798 ft 5 kts 356°
2026-05-07 15:29 50.07593 19.79143 798 ft 0 kts 351°
2026-05-07 15:30 50.07610 19.79138 798 ft 5 kts 349°
2026-05-07 15:30 50.07643 19.79124 798 ft 7 kts 345°
2026-05-07 15:30 50.07681 19.79111 798 ft 5 kts 347°
2026-05-07 15:30 50.07723 19.79096 798 ft 4 kts 348°
2026-05-07 15:31 50.07734 19.79093 798 ft 0 kts 348°
2026-05-07 15:33 50.07741 19.79091 798 ft 3 kts 348°
2026-05-07 15:34 50.07805 19.79069 798 ft 9 kts 348°
2026-05-07 15:34 50.07849 19.79057 798 ft 2 kts 314°
2026-05-07 15:34 50.07851 19.79047 798 ft 0 kts 261°
2026-05-07 15:35 50.07724 19.78126 847 ft 170 kts 257°
2026-05-07 15:36 50.07456 19.76219 1204 ft 189 kts 258°
2026-05-07 15:36 50.07155 19.74178 1462 ft 188 kts 258°
2026-05-07 15:36 50.07078 19.72256 1604 ft 174 kts 306°
2026-05-07 15:36 50.08161 19.71481 1640 ft 181 kts 347°
2026-05-07 15:37 50.09408 19.71028 1715 ft 186 kts 348°
2026-05-07 15:37 50.10746 19.70652 1802 ft 201 kts
2026-05-07 15:37 50.11595 19.72130 1861 ft 193 kts 77°
2026-05-07 15:37 50.11972 19.74115 1800 ft 183 kts 77°
2026-05-07 15:38 50.12336 19.76096 1678 ft 188 kts 78°
2026-05-07 15:38 50.12675 19.78060 1691 ft 189 kts 78°
2026-05-07 15:38 50.13002 19.79983 1708 ft 186 kts 78°
2026-05-07 15:38 50.13332 19.81912 1682 ft 188 kts 77°
2026-05-07 15:39 50.13423 19.83248 1700 ft 173 kts 117°
2026-05-07 15:39 50.12086 19.84253 1596 ft 180 kts 167°
2026-05-07 15:39 50.10928 19.84754 1521 ft 163 kts 167°
2026-05-07 15:39 50.09876 19.85177 1497 ft 145 kts 167°
2026-05-07 15:40 50.08927 19.85398 1525 ft 138 kts 205°
2026-05-07 15:40 50.08537 19.84072 1287 ft 150 kts 258°
2026-05-07 15:40 50.08314 19.82418 1122 ft 157 kts 257°
2026-05-07 15:40 50.08106 19.80860 951 ft 141 kts 257°
2026-05-07 15:41 50.07906 19.79425 801 ft 125 kts 257°
2026-05-07 15:41 50.07686 19.77762 1161 ft 184 kts 257°
2026-05-07 15:41 50.07395 19.75721 1662 ft 187 kts 257°
2026-05-07 15:41 50.07089 19.73833 1888 ft 173 kts 256°
2026-05-07 15:42 50.07341 19.72155 1887 ft 170 kts 328°
2026-05-07 15:42 50.08472 19.71705 1871 ft 170 kts 349°
2026-05-07 15:42 50.09676 19.71376 1756 ft 188 kts
2026-05-07 15:42 50.10461 19.72860 1814 ft 192 kts 80°
2026-05-07 15:43 50.10631 19.74821 1834 ft 188 kts 85°
2026-05-07 15:43 50.10810 19.76782 1789 ft 169 kts 83°
2026-05-07 15:43 50.10986 19.78535 1616 ft 164 kts 83°
2026-05-07 15:43 50.11170 19.80429 1525 ft 198 kts 83°
2026-05-07 15:44 50.11840 19.82309 1726 ft 193 kts 28°
2026-05-07 15:44 50.13048 19.82474 1688 ft 167 kts 338°
2026-05-07 15:44 50.13481 19.80970 1430 ft 178 kts 257°
2026-05-07 15:44 50.13216 19.78999 1509 ft 191 kts 255°
2026-05-07 15:45 50.12944 19.77045 1690 ft 177 kts 256°
2026-05-07 15:45 50.12641 19.75209 1651 ft 180 kts 253°
2026-05-07 15:45 50.11778 19.73710 1697 ft 204 kts 193°
2026-05-07 15:45 50.10708 19.74621 1813 ft 189 kts 97°
2026-05-07 15:46 50.10986 19.78586 1733 ft 183 kts 78°
2026-05-07 15:46 50.11303 19.80421 1596 ft 175 kts 74°
2026-05-07 15:46 50.12126 19.81963 1511 ft 195 kts 20°
2026-05-07 15:47 50.13260 19.81418 1530 ft 172 kts 307°
2026-05-07 15:47 50.13555 19.79691 1432 ft 177 kts 261°
2026-05-07 15:47 50.13263 19.77756 1482 ft 185 kts 245°
2026-05-07 15:47 50.12374 19.76414 1551 ft 187 kts 198°
2026-05-07 15:48 50.11189 19.76699 1636 ft 181 kts 137°
2026-05-07 15:48 50.10779 19.78822 1810 ft 212 kts 89°
2026-05-07 15:48 50.10974 19.80904 1611 ft 184 kts 75°
2026-05-07 15:48 50.11283 19.82801 1506 ft 194 kts 75°
2026-05-07 15:49 50.10888 19.84387 1345 ft 166 kts 167°
2026-05-07 15:49 50.09762 19.84743 1324 ft 162 kts 168°
2026-05-07 15:49 50.08985 19.84807 1261 ft 180 kts 204°
2026-05-07 15:49 50.08407 19.83145 1200 ft 175 kts 257°
2026-05-07 15:50 50.08108 19.80830 995 ft 158 kts 254°
2026-05-07 15:50 50.07869 19.79163 897 ft 163 kts 256°
2026-05-07 15:50 50.07615 19.77322 944 ft 181 kts 256°
2026-05-07 15:50 50.07368 19.75528 1349 ft 165 kts 255°
2026-05-07 15:51 50.07193 19.74349 1455 ft 163 kts 255°
2026-05-07 15:51 50.06968 19.72668 1550 ft 158 kts 256°
2026-05-07 15:51 50.06732 19.71050 1568 ft 149 kts 256°
2026-05-07 15:51 50.06526 19.69518 1580 ft 138 kts 256°
2026-05-07 15:52 50.06335 19.68208 1566 ft 124 kts 255°
2026-05-07 15:52 50.06133 19.66844 1653 ft 138 kts 256°
2026-05-07 15:52 50.05909 19.65427 1662 ft 137 kts 256°
2026-05-07 15:52 50.06332 19.64062 1767 ft 158 kts 341°
2026-05-07 15:53 50.07428 19.63639 1785 ft 189 kts 347°
2026-05-07 15:53 50.08864 19.63156 1772 ft 236 kts 347°
2026-05-07 15:53 50.10363 19.63667 1927 ft 236 kts 56°
2026-05-07 15:53 50.10935 19.65948 1728 ft 219 kts 77°
2026-05-07 15:54 50.11359 19.68142 1613 ft 208 kts 76°
2026-05-07 15:54 50.11761 19.70295 1598 ft 208 kts 76°
2026-05-07 15:54 50.12145 19.72491 1814 ft 210 kts 77°
2026-05-07 15:54 50.12517 19.74710 1810 ft 212 kts 77°
2026-05-07 15:55 50.12909 19.77044 1765 ft 237 kts 76°
2026-05-07 15:55 50.13310 19.79503 1797 ft 228 kts 77°
2026-05-07 15:55 50.13692 19.81813 1753 ft 208 kts 78°
2026-05-07 15:55 50.13329 19.83587 1646 ft 172 kts 159°
2026-05-07 15:56 50.12258 19.84025 1623 ft 155 kts 167°
2026-05-07 15:56 50.11083 19.84450 1460 ft 173 kts 167°
2026-05-07 15:56 50.09951 19.84852 1335 ft 164 kts 168°
2026-05-07 15:56 50.08880 19.84858 1283 ft 156 kts 214°
2026-05-07 15:57 50.08457 19.83458 1156 ft 134 kts 256°
2026-05-07 15:57 50.08290 19.82131 1059 ft 129 kts 254°
2026-05-07 15:57 50.08077 19.80659 953 ft 146 kts 255°
2026-05-07 15:57 50.07886 19.79279 798 ft 117 kts 255°
2026-05-07 15:58 50.07681 19.77790 945 ft 157 kts 256°
2026-05-07 15:58 50.07428 19.75989 1280 ft 189 kts 256°
2026-05-07 15:58 50.07135 19.74013 1564 ft 187 kts 255°
2026-05-07 15:58 50.06880 19.72206 1576 ft 157 kts 255°
2026-05-07 15:59 50.06655 19.70641 1537 ft 143 kts 255°
2026-05-07 15:59 50.06442 19.69110 1567 ft 142 kts 255°
2026-05-07 15:59 50.06237 19.67669 1636 ft 134 kts 256°
2026-05-07 15:59 50.06340 19.66121 1716 ft 163 kts 299°
2026-05-07 16:00 50.07535 19.65260 1849 ft 198 kts 347°
2026-05-07 16:00 50.08846 19.64912 1656 ft 179 kts 346°
2026-05-07 16:00 50.09997 19.64618 1610 ft 167 kts
2026-05-07 16:00 50.10717 19.65957 1697 ft 168 kts 77°
2026-05-07 16:01 50.11033 19.67925 1619 ft 217 kts 77°
2026-05-07 16:01 50.11432 19.70260 1577 ft 239 kts 76°
2026-05-07 16:01 50.11842 19.72758 1565 ft 231 kts 76°
2026-05-07 16:01 50.12239 19.75127 1541 ft 222 kts 77°
2026-05-07 16:02 50.12599 19.77349 1571 ft 200 kts 77°
2026-05-07 16:02 50.12985 19.79629 1545 ft 237 kts 77°
2026-05-07 16:02 50.13351 19.81992 1474 ft 211 kts 79°
2026-05-07 16:02 50.12651 19.83503 1535 ft 180 kts 165°
2026-05-07 16:03 50.11496 19.83986 1420 ft 165 kts 166°
2026-05-07 16:03 50.10379 19.84402 1325 ft 164 kts 167°
2026-05-07 16:03 50.09315 19.84772 1314 ft 149 kts 172°
2026-05-07 16:03 50.08518 19.83876 1204 ft 167 kts 253°
2026-05-07 16:04 50.08294 19.82217 1058 ft 148 kts 255°
2026-05-07 16:04 50.08079 19.80680 934 ft 139 kts 256°
2026-05-07 16:04 50.07903 19.79397 805 ft 111 kts 255°
2026-05-07 16:04 50.07776 19.78510 799 ft 50 kts 256°
2026-05-07 16:05 50.07730 19.78180 796 ft 25 kts 258°
2026-05-07 16:05 50.07673 19.78095 797 ft 8 kts 181°
2026-05-07 16:05 50.07612 19.78091 797 ft 10 kts 183°
2026-05-07 16:05 50.07552 19.78086 797 ft 7 kts 183°
2026-05-07 16:06 50.07509 19.78083 798 ft 8 kts 179°
2026-05-07 16:06 50.07473 19.78151 798 ft 10 kts 80°
2026-05-07 16:06 50.07493 19.78296 798 ft 14 kts 77°
2026-05-07 16:06 50.07513 19.78436 798 ft 13 kts 78°
2026-05-07 16:07 50.07531 19.78568 798 ft 12 kts 77°
2026-05-07 16:07 50.07555 19.78743 798 ft 16 kts 78°
2026-05-07 16:07 50.07575 19.78885 798 ft 11 kts 77°
2026-05-07 16:07 50.07589 19.78983 798 ft 9 kts 78°
2026-05-07 16:08 50.07606 19.79108 798 ft 14 kts 85°
2026-05-07 16:08 50.07562 19.79147 798 ft 6 kts 175°
2026-05-07 16:08 50.07520 19.79194 798 ft 12 kts 77°
2026-05-07 16:08 50.07526 19.79296 798 ft 14 kts 124°
2026-05-07 16:09 50.07487 19.79269 798 ft 4 kts 270°
2026-05-07 16:09 50.07486 19.79251 798 ft 4 kts 121°
2026-05-07 16:09 50.07486 19.79257 798 ft 0 kts 81°